Regional Weather Roundup
Issued by NWS San Diego, CA

Home | Current Version | Previous Version | Text Only | Print | Product List | Glossary On
Versions: 1 2 3 4 5 6 7 8 9 10 11 12 13 14 15 16 17 18 19 20 21 22 23 24 25 26 27 28 29 30 31 32 33 34 35 36 37 38 39 40 41 42 43 44 45 46 47 48 49 50
000
ASUS46 KSGX 162210
RWRSGX

SAN DIEGO HOURLY WEATHER ROUNDUP
NATIONAL WEATHER SERVICE SAN DIEGO CA
300 PM PDT TUE SEP 16 2014

NOTE: "FAIR" INDICATES FEW OR NO CLOUDS BELOW 12,000 FEET WITH NO
SIGNIFICANT WEATHER AND/OR OBSTRUCTIONS TO VISIBILITY.

CAZ042-043-060-061-PZZ750-775-162300-

GREATER SAN DIEGO AREA

CITY           SKY/WX    TMP DP  RH WIND       PRES   REMARKS
LINDBERGH FLD  MOSUNNY   91  64  40 NW13      29.69F
POINT LOMA       N/A     80  67  64 W28         N/A
NATIONAL CITY    N/A     94  71  46 SW9       29.68F HX 101
CHULA VISTA      N/A     92  72  51 W8        29.62F HX  99
IMPERIAL BEACH MOSUNNY   83  71  67 W13       29.70F
BROWN FIELD    MOSUNNY   95  67  39 W12       29.70F HX  99
MIRAMAR MCAS   MOSUNNY   99  59  26 NW8       29.70F HX  99
MONTGOMERY FLD MOSUNNY  102  62  26 W8        29.70F HX 104

$$

NORTH SAN DIEGO COUNTY

CITY           SKY/WX    TMP DP  RH WIND       PRES   REMARKS
CAMP PENDLETON MOSUNNY   96  60  30 S12       29.68F HX  96
OCEANSIDE AP   SUNNY     87  65  47 SW10      29.69F
OCEANSIDE HBR    N/A     78  72  80 W8        29.72F
VISTA            N/A     92  67  43 SW6       29.68S HX  96
CARLSBAD       SUNNY     84  64  50 VRB5      29.71F
DEL MAR          N/A     88  70  54 CALM      29.72F
LA JOLLA SCRIP   N/A     80  73  79 N6        29.67
FALLBROOK        N/A     99  60  27 S6        29.68F HX  99
ESCONDIDO        N/A    101  66  31 S6        29.69F HX 105
SAN MARCOS       N/A     94  67  41 SW7       29.68F HX  97
POWAY            N/A    104  66  29 CALM      29.68F HX 109

$$

EAST SAN DIEGO COUNTY

CITY           SKY/WX    TMP DP  RH WIND       PRES   REMARKS
RAMONA         MOSUNNY  100  63  29 E14       29.77F HX 102
SANTEE LAKES     N/A     95  72  46 CALM      29.69F HX 103
LA MESA          N/A    100  71  38 CALM      29.62F HX 108
JAMUL            N/A    102  69  34 E12       29.67F HX 108
DESCANSO N       N/A     87  63  44 E13       29.60F
MT. LAGUNA OBS   N/A     69  58  67 NE6       29.69F
CAMPO            N/A     90  61  37 NE24G32   29.83F

$$

ORANGE COUNTY AND THE LOS ANGELES BASIN

CITY           SKY/WX    TMP DP  RH WIND       PRES   REMARKS
JOHN WAYNE AP  MOSUNNY   96  58  27 SW8       29.69F HX  95
LAGUNA BEACH     N/A     87  67  50 E3        29.65F
LAKE FOREST FR   N/A    101  57  22 W3        29.58F HX 100
SANTA ANA        N/A     99  69  37 CALM      29.64F HX 105
HUNTINGTON BCH   N/A     88  66  46 W10       29.71F
LOS ALAMITOS   MOSUNNY  101  63  28 W10       29.68F HX 103
FULLERTON      SUNNY    101  58  24 VRB7      29.67F HX 100
LONG BEACH     SUNNY     93  57  29 W15       29.69F
L.A. AP        MOSUNNY   81  59  47 W15       29.71F
L.A. DOWNTOWN  SUNNY     94  58  29 VRB3      29.70F

$$

THE INLAND EMPIRE

CITY           SKY/WX    TMP DP  RH WIND       PRES   REMARKS
CORONA         MOSUNNY  104  57  21 W14G23    29.69F HX 103
CHINO          MOSUNNY  106  54  17 SW17      29.70F HX 104
ONTARIO        MOSUNNY  106  54  17 SW13G22   29.70F HX 104
SAN BERNARDINO PTSUNNY  100  54  20 E13       29.74F HX  98
RIVERSIDE AP   MOSUNNY  106  55  18 W14G23    29.70F HX 105
RIV CYN CREST    N/A    109  65  24 W1        29.69F HX 114
MORENO VALLEY    N/A    101  59  24 SE9       28.97  HX 101
MARCH ARB      PTSUNNY   91  59  33 S23G35    29.80R BLWGDUST
HORSETHIEF CYN   N/A     92  57  30 SE20      29.72R
PERRIS           N/A     88  60  39 S17       29.73S
MENIFEE          N/A     83  65  54 SW8       29.82R
HEMET EAST       N/A     88  63  42 CALM      29.70S
FRENCH VALLEY  CLOUDY    86  61  42 N8G29     29.79R
TEMECULA         N/A     98  62  30 SW9       29.71S HX  99

$$

SAN BERNARDINO AND RIVERSIDE COUNTY MOUNTAINS

CITY           SKY/WX    TMP DP  RH WIND       PRES   REMARKS
BIG BEAR AP    MOSUNNY   70  54  56 CALM      30.21F
ANGELUS OAKS     N/A     66  62  87 CALM      29.66F
PINE COVE        N/A     75  56  51 CALM      29.65F

$$

SOUTHERN DESERT INCLUDING THE COACHELLA VALLEY

CITY           SKY/WX    TMP DP  RH WIND       PRES   REMARKS
PALM SPRINGS   MOSUNNY  101  64  29 SE6       29.76F HX 104
THOUSAND PALMS   N/A    101  66  31 SE7       29.70F HX 105
PALM DESERT      N/A    102  71  36 CALM      31.24S HX 111
THERMAL        MOSUNNY  102  65  29 S10       29.69F HX 105
BLYTHE         SUNNY     99  64  31 MISG      29.75F HX 101
IMPERIAL AP    MOSUNNY  100  64  30 SE14      29.71F HX 102
EL CENTRO NAS  MOSUNNY  102  63  27 E15       29.71F HX 104
YUMA AZ        CLOUDY    98  60  28 E15       29.76F HX  98
MEXICALI       PTSUNNY   97  63  32 SE12      29.75  HX  98

$$

UPPER DESERT

CITY           SKY/WX    TMP DP  RH WIND       PRES   REMARKS
VICTORVILLE AP MOSUNNY   99  45  15 NE6       29.87F
HESPERIA         N/A     95  57  27 SE5       29.79F
APPLE VALLEY     N/A     97   0   2 E1        29.94F
PALMDALE       MOSUNNY  100  47  16 NE6       29.85F HX  96
LANCASTER      SUNNY    100  48  17 CALM      29.84F HX  96
EDWARDS AFB    MOSUNNY  100  47  16 NW7       29.82F HX  96
DAGGETT        FAIR     101  57  23 E16G28    29.80F HX 100
29 PALMS N     PTSUNNY   95  62  33 SE13      29.90F THUNDER HX  96
NEEDLES        MOSUNNY  102  63  27 VRB6      29.77F HX 104

$$

REGIONAL REPORTS

CITY           SKY/WX    TMP DP  RH WIND       PRES   REMARKS
SANTA BARBARA  SUNNY     85  59  41 SE7       29.70F
SANDBERG       SUNNY     87  45  23 N22       30.04
MT. WILSON       N/A     90  54  29 MISG        N/A
LAS VEGAS NV   MOSUNNY  101  55  21 E6        29.80F HX  99
PHOENIX AZ     LGT RAIN  82  69  64 E9        29.87F
TIJUANA        MOSUNNY  102  55  21 NE12      29.72F HX 101
ENSENADA NW      N/A     88  32  13 W2        29.65F

$$

OFFSHORE ISLANDS

CITY           SKY/WX    TMP DP  RH WIND       PRES   REMARKS
CATALINA ARPT  SUNNY     90  55  30 SW9       29.81F
SAN CLEMENTE I MOSUNNY   78  64  61 W10       29.75F
SAN NICOLAS IS MOSUNNY   85  55  35 NW28      29.75F

$$

MARINE AND OFFSHORE BUOY REPORTS

STATION/POSITION SKY/WX   TEMP    WIND        PRES    SWELL
                          AIR SEA DIR/SP/G            HT/PER/DIR
                          (F)     (DEG/KT/KT) (MB)    (FT/S/D)
TANNER BANKS               68 70  320/ 17/ 21 1007.5F   3/160/19
S CLEMENTE BASIN           74 75  300/ 14/ 16 1005.7F   3/240/19
SAN NICOLAS IS.               67                N/A     3/210/18
SO. S. ROSA ISLA           67 67  320/ 17/ 21 1007.4F   2/19
W. S. BARBARA CH           63 65  320/ 23/ 27 1007.0F   2/220/19
S. MONICA BASIN            74 75  290/  6/  8 1006.8F   3/170/19
S PEDRO CHANNEL               74                N/A     2/190/20
DANA POINT                    73                N/A     3/210/20
CMP PENDLETON NS              73                N/A     5/220/20
OCEANSIDE OFFSHR              75                N/A     5/210/20
TORREY PINES OTR              77                N/A     3/210/20
LA JOLLA 1                 77 68   20/  9/ 10 1005.8S
MISSION BAY BUOY              74                N/A     3/210/20
SAN DIEGO BAY                 77              1005.7F

$$




USA.gov is the U.S. government's official web portal to all federal, state and local government web resources and services.